{"data":{"norad_id":82854,"intl_designator":"","name":"UNKNOWN","alt_names":[],"object_type":"UNKNOWN","status":"UNKNOWN","operator":null,"country":null,"launch_date":null,"launch_site_code":null,"launch_vehicle":null,"mission":null,"orbit_class":"UNKNOWN","rcs_meters":null,"size_class":null,"mass_kg":null,"dimensions":null,"purposes":[],"wikipedia_slug":null,"has_3d_model":false,"image_url":null,"decayed_at":null,"tle_current":{"epoch":"2026-09-20T02:51:04.027104Z","epoch_age_seconds":51307,"freshness":"FRESH","line1":"1 82854U          26263.11879661  .00000969  00000+0  74623-3 0  9993","line2":"2 82854  82.6908 203.7343 0122711 202.3415 157.2378 13.88668879646840","mean_motion":13.88668879,"eccentricity":0.0122711,"inclination_deg":82.6908,"raan_deg":203.7343,"arg_perigee_deg":202.3415,"mean_anomaly_deg":157.2378,"bstar":0.00074623,"rev_number":64684,"period_min":103.69642625224,"perigee_km":843.58002591329,"apogee_km":1023.0187601585,"semimajor_km":7311.4363930359,"source":"CELESTRAK","updated_at":"2026-09-20T09:00:32.440144Z"}}}